GFSNE_850_spd_159.txt.gz
Wind_Speed
19 15 15 15 18 17 15 14 12 10 11 10 9 9 10 8 9 15 8 4 4 4 5 7 8 7 5 4 4 4 4 5 6 6 6 6 5 5
17 18 19 16 16 17 16 14 14 14 13 12 10 12 13 12 13 11 8 6 5 7 7 7 7 5 4 4 4 5 5 5 5 6 6 6 6 7
20 20 20 20 19 17 16 12 15 19 20 20 18 16 13 13 14 12 8 8 8 8 7 6 6 5 5 4 4 4 4 5 5 6 7 8 9 9
21 21 23 20 20 20 22 21 19 20 21 22 21 17 18 15 13 10 10 9 10 7 6 5 4 4 4 4 4 4 4 4 5 6 7 6 6 6
26 24 23 23 24 24 22 22 23 22 22 23 21 17 16 16 17 17 15 14 10 9 5 5 4 2 3 3 3 3 3 2 2 3 4 5 6 7
31 29 27 26 26 24 24 24 23 22 21 20 20 19 17 17 18 18 18 15 13 9 7 7 6 3 1 0 2 2 2 2 2 3 4 5 6 6
35 33 32 30 29 27 26 26 24 24 23 22 22 22 22 24 23 21 18 17 14 10 10 10 10 7 6 5 4 3 4 4 4 5 5 6 8 8
41 37 35 33 32 31 30 29 28 26 26 26 25 25 24 24 22 24 22 21 17 14 14 14 13 9 7 7 7 8 7 7 7 8 10 11 11 11
41 38 37 35 32 32 31 30 29 28 28 26 26 26 24 25 24 25 23 20 18 15 18 15 13 11 12 13 10 9 9 10 12 13 15 15 15 15
38 38 32 34 35 31 28 29 30 29 28 28 27 26 26 23 23 23 20 19 18 17 16 18 18 16 15 13 12 10 8 8 10 11 11 11 12 12
40 41 43 40 37 33 31 31 30 30 29 28 28 25 25 25 25 24 23 23 22 20 22 16 20 19 17 14 13 9 7 6 5 5 5 6 8 8
45 45 44 37 34 37 33 35 34 35 33 31 29 27 27 27 26 23 21 22 23 22 24 16 23 20 17 16 15 10 8 6 4 2 1 4 6 6
47 44 42 40 34 32 33 33 35 33 30 32 27 29 28 26 23 20 16 17 23 17 22 17 20 19 12 19 18 14 10 7 6 4 3 7 8 6
48 46 43 33 29 28 28 28 28 27 27 24 21 31 33 34 25 23 24 25 21 15 19 13 14 18 18 17 19 18 12 8 6 1 4 6 6 8
45 43 38 33 21 23 24 23 21 23 25 23 30 23 20 22 35 33 27 26 22 13 12 10 12 16 13 13 16 17 14 9 4 1 4 5 7 11
25 28 31 30 25 23 21 20 19 18 20 26 27 27 27 28 21 27 26 18 16 18 15 11 10 10 13 11 13 14 9 5 4 1 3 8 12 13
15 17 21 25 25 23 19 17 19 23 24 25 28 32 31 28 28 24 27 21 19 15 13 10 10 11 11 10 10 6 6 6 4 3 6 11 12 8
14 19 21 22 22 21 22 21 23 23 26 31 36 35 31 25 29 28 25 20 12 11 10 10 14 15 13 11 6 3 5 3 2 4 9 9 5 4
20 20 21 25 22 25 23 24 27 33 40 43 38 33 30 28 27 24 22 18 18 13 12 13 13 9 7 6 6 4 2 2 3 5 3 4 5 5
24 26 28 30 33 32 34 39 43 43 39 35 31 30 28 25 21 19 19 15 11 11 13 14 12 9 4 3 5 5 4 3 1 2 4 4 6 9
33 36 33 39 42 43 43 43 39 35 33 33 31 26 23 19 17 14 11 10 10 9 14 14 11 7 2 4 1 6 4 2 2 3 3 7 10 11
34 33 32 34 35 35 34 33 33 30 27 25 22 20 17 14 11 13 15 11 9 9 10 11 8 4 0 1 2 5 3 2 2 2 5 9 11 9
29 30 28 28 27 26 24 23 22 21 20 17 16 15 14 13 12 12 12 10 9 9 10 8 6 5 5 3 3 3 3 1 2 4 6 4 8 12

GFSNE_850_spd_165.txt.gz
Wind_Speed
18 16 15 14 15 15 14 13 12 14 13 11 8 10 9 10 11 11 11 11 7 6 7 6 7 7 4 2 2 2 3 3 3 3 3 3 2 2
18 19 18 16 17 16 17 15 14 15 15 11 9 13 13 15 14 12 12 12 10 8 7 8 7 6 4 3 2 2 2 2 2 3 4 5 5 6
20 22 22 20 17 17 18 18 19 16 16 14 14 16 16 15 16 16 15 13 11 10 9 8 5 5 4 4 4 3 3 3 3 4 5 5 4 3
24 21 22 20 21 19 19 20 19 19 19 20 19 15 16 20 20 18 19 16 13 12 9 7 6 4 5 5 5 4 4 4 5 4 4 3 4 3
28 27 25 23 23 21 23 21 21 21 20 21 22 17 18 20 19 19 19 18 18 14 12 11 8 8 8 6 5 6 5 4 3 2 2 2 2 3
28 29 27 28 28 25 24 24 23 22 23 23 19 18 19 18 19 19 21 19 20 17 16 14 12 11 10 8 6 5 4 3 2 1 1 2 2 2
30 30 31 30 28 28 27 26 24 24 25 24 21 20 17 20 21 20 21 21 21 20 19 17 16 14 11 9 7 6 5 4 3 2 2 2 2 3
34 33 37 35 33 31 32 30 27 26 27 27 23 23 23 23 21 23 23 22 23 22 23 19 19 17 14 13 10 8 7 6 5 6 7 8 8 7
35 37 33 36 37 35 31 31 31 29 28 28 29 29 27 23 23 26 26 25 27 26 26 25 22 20 17 16 13 13 11 11 10 11 10 9 7 6
35 36 39 38 36 31 30 28 31 31 28 28 32 32 31 28 25 25 24 23 23 24 25 29 27 25 21 20 19 17 16 14 13 11 8 7 6 5
40 40 39 39 37 34 33 33 29 29 26 25 28 29 29 30 27 27 28 27 27 30 28 30 31 29 27 25 23 23 20 16 12 8 5 4 4 3
42 43 44 43 41 38 34 33 34 32 29 33 28 30 31 30 30 30 30 28 29 25 31 34 31 34 25 27 26 22 21 16 10 6 3 1 2 3
38 39 38 39 41 40 37 33 32 29 28 29 28 27 31 31 32 29 26 22 17 25 28 37 35 36 27 36 30 23 19 13 9 6 5 3 3 3
37 34 34 33 35 35 34 33 29 29 26 26 26 24 16 19 10 14 20 25 28 35 37 42 40 45 27 36 32 25 20 15 13 11 9 5 4 4
26 23 22 18 25 31 32 31 23 22 25 26 27 21 12 9 11 14 31 29 30 32 24 27 34 38 26 32 26 25 19 19 16 14 9 7 6 7
15 15 15 13 14 19 24 24 21 23 22 24 27 24 21 20 22 24 25 23 17 19 21 26 28 29 26 17 15 20 23 19 17 14 10 7 7 9
12 12 11 10 12 13 21 22 22 23 21 20 20 20 22 19 19 18 17 18 22 28 30 32 28 26 21 15 14 16 20 14 16 11 8 7 8 6
11 9 7 7 5 7 19 20 22 17 15 17 17 20 17 17 17 19 19 20 23 26 27 26 24 22 21 18 14 17 16 11 11 9 7 3 2 2
11 7 4 3 2 9 13 12 16 18 18 17 22 21 21 21 24 25 25 28 29 27 27 27 23 21 20 15 16 14 10 10 9 8 4 3 3 3
19 12 6 5 6 11 15 22 22 21 21 21 21 23 26 29 30 32 30 28 27 25 22 19 15 13 12 12 12 13 11 9 7 5 3 3 3 5
24 21 16 6 8 11 15 19 20 21 21 23 25 26 30 33 31 28 25 23 20 16 17 15 13 12 9 8 8 11 10 9 7 6 5 3 4 5
33 30 25 22 18 17 18 19 24 26 27 27 29 30 30 30 27 24 20 17 14 12 13 15 11 11 8 6 7 9 8 7 7 6 5 4 3 4
25 27 27 26 24 25 26 24 24 25 26 29 30 27 20 17 15 13 13 11 12 13 13 15 13 9 6 5 7 8 8 6 4 2 4 5 6 9

GFSNE_850_spd_168.txt.gz
Wind_Speed
12 14 10 10 11 12 12 11 12 13 11 7 6 7 6 6 7 4 9 7 8 8 7 8 8 7 5 4 4 3 3 3 3 2 2 2 2 3
14 14 15 12 14 13 14 14 14 13 14 10 9 9 9 7 11 7 9 11 10 10 9 9 9 7 6 6 5 5 4 4 4 3 3 4 5 5
17 17 18 18 16 15 14 16 15 15 15 14 13 9 14 11 10 7 10 11 12 11 13 11 9 8 8 7 6 6 5 5 4 4 4 4 2 1
19 20 19 17 19 18 18 17 17 16 17 17 15 15 15 15 12 12 9 10 12 13 15 12 10 9 8 7 6 6 6 6 5 4 3 2 2 2
21 22 22 21 22 20 19 18 17 16 18 18 17 15 17 14 17 14 14 15 16 14 17 14 14 11 11 9 7 7 7 6 4 4 3 2 2 3
22 23 23 23 23 23 25 23 21 21 20 20 19 18 19 16 18 17 15 16 15 14 19 19 18 15 14 11 10 8 7 6 5 4 3 3 4 4
25 26 26 27 28 28 26 24 25 23 21 22 21 20 19 19 18 19 18 17 15 17 19 21 19 19 17 14 13 11 10 8 6 5 4 4 4 4
25 25 26 29 33 31 34 33 31 29 27 25 24 23 22 21 20 23 20 20 20 20 20 21 23 19 19 18 16 13 12 9 8 7 6 6 6 5
31 29 27 26 29 29 28 32 35 36 36 33 28 27 25 23 21 24 24 23 22 22 17 26 27 23 22 23 19 16 14 12 11 11 10 7 6 4
35 36 37 37 32 28 26 27 27 29 33 37 37 32 26 23 25 24 25 22 18 22 20 26 30 27 26 24 21 19 18 17 16 13 10 7 5 4
33 34 36 39 40 39 36 34 30 30 27 27 29 30 29 26 26 25 25 24 24 26 25 28 32 31 26 27 27 24 26 24 18 13 9 6 3 2
33 35 36 37 40 42 40 37 36 30 28 27 26 25 24 24 26 26 27 29 30 31 30 32 33 35 25 28 30 30 27 23 21 17 11 5 1 1
33 33 29 30 32 34 39 42 35 28 27 27 28 26 26 23 24 26 27 27 33 35 23 18 30 36 28 35 34 30 26 24 18 12 7 5 5 4
33 37 35 28 26 30 35 35 39 32 29 25 22 27 28 19 15 11 10 8 12 12 15 21 31 40 45 35 39 33 26 21 16 13 11 10 7 6
26 25 19 16 17 19 29 33 27 30 29 28 29 26 23 19 17 15 16 17 13 16 18 26 35 36 42 37 40 36 31 24 17 14 15 12 8 6
15 13 12 12 13 14 15 19 30 26 26 27 27 27 21 20 18 16 15 14 17 17 15 12 23 21 34 28 39 33 26 20 23 18 13 11 8 6
12 11 8 9 10 10 10 14 20 22 22 23 21 19 20 19 18 16 14 12 9 7 8 14 17 23 24 29 28 22 23 20 20 18 13 9 7 5
10 9 8 9 8 5 2 9 15 21 22 18 17 16 16 16 15 11 6 4 7 20 29 33 34 34 29 23 19 20 19 14 16 16 12 8 5 4
15 14 12 9 8 6 8 7 12 18 19 14 15 16 15 13 11 11 14 17 25 28 27 27 25 25 22 20 18 18 15 15 13 11 9 7 7 6
20 17 15 13 9 6 7 10 13 12 13 15 16 16 14 15 18 20 23 28 29 26 26 24 22 16 15 15 15 15 17 11 10 9 7 6 6 9
28 21 17 15 14 12 10 9 9 11 14 15 18 20 21 26 30 30 29 28 27 24 21 17 12 14 14 13 12 12 14 15 13 8 7 7 6 5
24 28 26 22 20 19 19 18 18 19 22 24 25 28 32 31 30 29 25 20 16 15 15 13 15 10 9 7 9 10 8 9 11 12 12 10 5 5
16 22 21 21 22 23 26 24 24 25 25 30 31 28 23 19 15 13 13 13 12 13 12 14 13 10 8 6 8 8 9 6 4 3 5 5 6 6

GFSNE_850_spd_171.txt.gz
Wind_Speed
12 13 13 12 12 12 13 12 11 14 12 8 8 10 7 7 12 5 11 9 6 5 6 9 9 9 9 8 7 7 6 6 6 5 5 4 4 5
15 16 17 14 15 14 15 13 14 15 15 14 10 2 7 6 8 8 13 12 11 8 9 11 10 10 9 8 8 8 7 7 6 6 6 6 6 7
16 17 18 20 18 16 17 18 17 16 17 17 14 10 16 16 12 11 12 14 11 12 11 12 12 11 10 9 8 8 8 8 7 7 6 6 5 4
18 20 20 18 22 21 17 20 19 19 18 18 19 17 14 17 15 16 14 12 15 11 12 14 14 13 11 10 10 10 9 8 7 7 6 5 4 4
22 23 24 23 23 21 22 21 22 23 22 21 20 18 17 19 21 20 16 18 20 15 14 16 17 16 14 12 12 11 10 8 8 7 6 5 4 4
24 25 26 27 27 27 27 26 27 24 20 21 22 19 20 21 22 21 22 22 21 17 16 18 20 19 17 16 15 14 12 10 9 7 6 5 6 5
23 24 25 28 29 28 29 27 27 27 25 26 28 25 23 24 22 20 20 21 20 18 18 18 18 23 21 20 19 18 14 11 10 9 8 7 6 6
25 25 25 26 28 31 33 36 36 32 34 31 28 28 27 21 19 22 23 25 22 23 21 19 17 20 24 24 22 19 16 14 13 11 9 8 7 7
30 30 28 26 28 29 31 33 33 35 39 39 38 36 28 22 24 24 27 28 27 24 20 23 22 20 21 23 24 21 18 17 15 13 12 11 9 8
35 35 36 36 35 35 32 30 30 33 32 36 46 45 43 38 30 28 31 29 21 22 19 24 26 27 28 28 27 22 21 19 18 17 16 12 10 8
34 35 35 35 35 36 34 35 40 39 32 31 34 32 37 42 33 29 27 24 27 27 25 27 28 31 34 32 29 26 25 25 26 26 19 15 13 9
33 33 31 33 36 35 34 40 44 40 40 37 36 34 34 29 29 28 28 26 30 28 29 32 29 32 21 20 25 30 29 31 29 23 21 19 13 6
31 30 28 26 32 36 37 38 38 39 34 32 35 31 27 26 26 26 21 19 24 30 29 26 34 27 31 24 29 33 34 30 23 22 18 14 11 8
31 28 27 27 29 28 29 36 38 35 37 32 26 29 31 29 27 28 29 26 27 26 19 13 24 26 29 29 32 35 32 29 27 19 15 16 11 8
24 24 24 27 24 24 24 24 25 34 25 35 27 25 25 28 26 20 18 18 19 17 17 16 14 23 32 36 36 39 35 34 27 22 17 14 11 9
14 16 18 18 18 20 19 17 19 19 27 22 24 24 24 24 17 18 17 15 13 12 13 14 17 22 24 23 27 37 39 29 28 21 16 9 7 5
7 8 8 9 12 12 11 10 8 12 19 20 26 20 20 19 17 16 13 11 11 10 8 8 10 12 12 16 33 40 34 21 23 19 14 11 10 11
5 6 7 9 10 10 6 1 7 10 17 18 21 22 19 16 16 13 10 8 7 11 11 12 13 15 17 22 27 31 24 16 14 18 17 13 10 9
8 10 10 9 8 7 3 2 6 9 9 10 14 18 18 16 13 11 11 12 15 19 19 19 23 31 33 28 27 18 15 13 14 15 14 12 9 10
15 14 12 10 7 6 5 5 6 11 12 13 15 15 15 14 14 14 15 20 27 32 30 24 22 20 20 22 21 19 17 13 12 12 11 9 12 12
20 19 15 13 13 9 8 8 8 10 12 15 17 17 17 17 19 21 23 26 30 30 29 24 18 17 13 14 14 15 19 17 15 14 12 12 11 10
14 17 24 21 16 14 14 16 17 19 20 21 23 21 21 21 26 29 27 26 24 21 18 14 14 12 13 12 12 14 13 18 19 17 14 14 11 8
11 13 18 17 15 17 19 20 20 21 24 22 21 20 22 23 21 18 16 14 13 17 12 12 12 11 8 7 14 10 12 10 9 15 19 19 15 15